SHIYAN 24C 01

导读

SHIYAN 24C 01(试验二十四号C卫星)是中国于北京时间2023年12月25日发射的空间技术试验卫星,本次任务由太原卫星发射中心在广东阳江附近海域,通过长征十一号运载火箭完成发射,卫星顺利进入预定轨道,发射任务取得圆满成功,该卫星主要用于开展空间科学技术试验验证,是长征系列运载火箭第503次飞行。

基本信息
目录编号:
58650
目录名称:
SHIYAN 24C 01
国际标识:
2023-206A
轨道中心:
EARTH
卫星名称:
SHIYAN 24C 01
卫星全名:
--
卫星状态:
在轨 (已飞行932 天)
发射日期:
2023-12-25 UTC
国别 :
中国 (CN)
星等 :
--
轨道信息
数据来源 国际轨道数据
星历时间: 2026-06-17T22:51:41+0800
轨道信息已过期26天
半长轴: 6950.475km
偏心率: 0.0003448
轨道倾角: 97.407°
近地点辐角 148.753°
升交点赤经 136.388°
平近点角 211.390°
近地点: 569.941km
远地点: 574.735km
周期: 96.113分钟
每日圈数: 14.982389
详细信息
使用方式:
暂无
2D轨道图
3D轨道图
轨道高度分析图
轨道倾角分析图
轨道综合分析图
查看轨道综合分析图